GLD1793 SDEN-SBFL

Flight info

Callsign GLD1793
Flight time 0h 14m
Altitude 30000
Route SBFL
Aircraft BE58/M-SDFGIRY/S

Departure

Time 2026-05-05 20:21
Airport Costa Esmeralda Airport (SDEN)

Arrival

Time 2026-05-05 20:35
Airport Hercílio Luz International Airport (SBFL)
Time Latitude Longitude Altitude Speed Heading
2026-05-05 20:13 -27.16729 -48.61995 27 ft 0 kts 51°
2026-05-05 20:18 -27.16724 -48.61993 27 ft 2 kts 354°
2026-05-05 20:18 -27.16736 -48.62004 27 ft 7 kts 149°
2026-05-05 20:18 -27.16775 -48.62021 26 ft 7 kts 286°
2026-05-05 20:18 -27.16764 -48.62038 26 ft 0 kts 308°
2026-05-05 20:19 -27.16759 -48.62045 26 ft 14 kts 309°
2026-05-05 20:20 -27.16489 -48.62391 37 ft 95 kts 312°
2026-05-05 20:20 -27.16020 -48.63035 349 ft 114 kts 312°
2026-05-05 20:20 -27.15425 -48.63788 403 ft 140 kts 329°
2026-05-05 20:20 -27.14468 -48.63907 556 ft 149 kts 20°
2026-05-05 20:21 -27.13755 -48.63054 806 ft 158 kts 70°
2026-05-05 20:21 -27.13787 -48.61815 1069 ft 165 kts 98°
2026-05-05 20:21 -27.14013 -48.60520 1318 ft 171 kts 98°
2026-05-05 20:21 -27.14210 -48.59214 1564 ft 173 kts 97°
2026-05-05 20:22 -27.14414 -48.57871 1819 ft 176 kts 98°
2026-05-05 20:22 -27.14614 -48.56506 2069 ft 179 kts 98°
2026-05-05 20:22 -27.14812 -48.55111 2318 ft 181 kts 98°
2026-05-05 20:22 -27.15002 -48.53693 2497 ft 189 kts 98°
2026-05-05 20:23 -27.15387 -48.52244 2500 ft 200 kts 124°
2026-05-05 20:23 -27.16470 -48.51307 2509 ft 200 kts 164°
2026-05-05 20:23 -27.17823 -48.51309 2510 ft 194 kts 199°
2026-05-05 20:23 -27.19124 -48.51737 2511 ft 196 kts 196°
2026-05-05 20:24 -27.20491 -48.51879 2513 ft 200 kts 180°
2026-05-05 20:24 -27.21884 -48.51706 2511 ft 202 kts 174°
2026-05-05 20:24 -27.23281 -48.51489 2512 ft 202 kts 175°
2026-05-05 20:24 -27.24679 -48.51299 2511 ft 202 kts 176°
2026-05-05 20:25 -27.26052 -48.51124 2513 ft 201 kts 176°
2026-05-05 20:25 -27.27437 -48.50943 2505 ft 200 kts 176°
2026-05-05 20:25 -27.28814 -48.50761 2510 ft 199 kts 175°
2026-05-05 20:25 -27.30196 -48.50582 2508 ft 200 kts 176°
2026-05-05 20:26 -27.31580 -48.50402 2506 ft 200 kts 176°
2026-05-05 20:26 -27.32960 -48.50220 2506 ft 199 kts 176°
2026-05-05 20:26 -27.34333 -48.50041 2512 ft 199 kts 176°
2026-05-05 20:26 -27.35720 -48.49860 2505 ft 200 kts 175°
2026-05-05 20:27 -27.37098 -48.49679 2509 ft 200 kts 175°
2026-05-05 20:27 -27.38481 -48.49498 2506 ft 200 kts 175°
2026-05-05 20:27 -27.39862 -48.49317 2504 ft 198 kts 175°
2026-05-05 20:27 -27.41236 -48.49137 2505 ft 199 kts 175°
2026-05-05 20:28 -27.42600 -48.48959 2490 ft 199 kts 176°
2026-05-05 20:28 -27.43971 -48.48779 2494 ft 198 kts 175°
2026-05-05 20:28 -27.45345 -48.48598 2488 ft 200 kts 175°
2026-05-05 20:28 -27.46739 -48.48416 2487 ft 201 kts 175°
2026-05-05 20:29 -27.48128 -48.48234 2488 ft 201 kts 175°
2026-05-05 20:29 -27.49520 -48.48052 2487 ft 202 kts 175°
2026-05-05 20:29 -27.50921 -48.47869 2478 ft 202 kts 175°
2026-05-05 20:29 -27.52317 -48.47683 2481 ft 202 kts 174°
2026-05-05 20:30 -27.53720 -48.47499 2478 ft 204 kts 175°
2026-05-05 20:30 -27.55130 -48.47317 2472 ft 204 kts 174°
2026-05-05 20:30 -27.56531 -48.47131 2468 ft 201 kts 174°
2026-05-05 20:30 -27.57913 -48.46948 2473 ft 203 kts 175°
2026-05-05 20:31 -27.59319 -48.46767 2469 ft 203 kts 175°
2026-05-05 20:31 -27.60722 -48.46582 2467 ft 203 kts 175°
2026-05-05 20:31 -27.62127 -48.46396 2467 ft 204 kts 175°
2026-05-05 20:31 -27.63539 -48.46211 2466 ft 204 kts 175°
2026-05-05 20:32 -27.64946 -48.46025 2469 ft 204 kts 175°
2026-05-05 20:32 -27.66363 -48.45840 2467 ft 204 kts 174°
2026-05-05 20:32 -27.67753 -48.45708 2468 ft 202 kts 184°
2026-05-05 20:32 -27.69026 -48.46279 2462 ft 197 kts 223°
2026-05-05 20:33 -27.69760 -48.47538 2454 ft 191 kts 255°
2026-05-05 20:33 -27.69855 -48.49070 1861 ft 205 kts 279°
2026-05-05 20:33 -27.69252 -48.50608 967 ft 225 kts 306°
2026-05-05 20:33 -27.68176 -48.51917 677 ft 208 kts 328°
2026-05-05 20:34 -27.66957 -48.51964 1018 ft 173 kts 34°
2026-05-05 20:34 -27.66427 -48.50800 841 ft 168 kts 87°
2026-05-05 20:34 -27.67078 -48.49897 850 ft 160 kts 172°
2026-05-05 20:34 -27.67986 -48.50341 672 ft 149 kts 240°
2026-05-05 20:35 -27.68172 -48.51485 332 ft 147 kts 271°
2026-05-05 20:35 -27.68000 -48.52529 182 ft 126 kts 303°
2026-05-05 20:35 -27.67543 -48.53323 22 ft 109 kts 303°
2026-05-05 20:35 -27.67247 -48.53873 18 ft 47 kts 301°
2026-05-05 20:36 -27.67143 -48.54057 20 ft 20 kts 305°
2026-05-05 20:36 -27.67067 -48.54188 21 ft 22 kts 297°
2026-05-05 20:36 -27.66992 -48.54339 22 ft 23 kts 302°
2026-05-05 20:36 -27.66936 -48.54500 22 ft 12 kts 233°
2026-05-05 20:37 -27.67027 -48.54558 21 ft 17 kts 212°
2026-05-05 20:37 -27.67127 -48.54619 21 ft 13 kts 212°
2026-05-05 20:37 -27.67212 -48.54671 21 ft 13 kts 193°
2026-05-05 20:37 -27.67220 -48.54673 21 ft 0 kts 194°
2026-05-05 20:58 -27.67222 -48.54674 21 ft 1 kts 183°
2026-05-05 20:59 -27.67220 -48.54653 21 ft 4 kts 50°
2026-05-05 20:59 -27.67195 -48.54620 21 ft 5 kts 50°
2026-05-05 20:59 -27.67179 -48.54599 21 ft 0 kts 40°